Location: Archamps
(46.1365°N, 6.1329°E)
Time: 07:06:01
(UTC+00:00)

CZ-4B R/B - Pass Details

Date: 28 January 2023
Orbit: 809 x 881 km, 99.0° (Epoch: 21 March)

Event Time Altitude Azimuth Distance (km) Brightness Sun altitude
Rises 17:29:15 0° 134° (SE) 3,325 6.0 -9.7°
Reaches altitude 10° 17:31:47 10° 124° (SE) 2,403 5.2 -10.2°
Maximum altitude 17:36:24 32° 63° (ENE) 1,395 3.8 -10.9°
Drops below altitude 10° 17:41:07 10° 3° (N) 2,450 5.4 -11.7°
Sets 17:43:43 0° 354° (N) 3,400 6.3 -12.2°
